Weather History for KBWI - June, 2012

Change the Weather History Date:

Saturday, June 9, 2012

  Actual Average Record
Temperature  
Mean Temperature 76 °F 71 °F  
Max Temperature 90 °F 81 °F 100 °F (2011)
Min Temperature 62 °F 60 °F 45 °F (1997)
Degree Days  
Heating Degree Days 0 1  
Month to date heating degree days 4 11  
Since 1 June heating degree days 4 11  
Since 1 July heating degree days 3590 4760  
Cooling Degree Days 11 6  
Month to date cooling degree days 27 49  
Year to date cooling degree days 219 133  
Since 1 June cooling degree days 27 49  
Growing Degree Days 26 (Base 50)    
Moisture  
Dew Point 54 °F    
Average Humidity 50    
Maximum Humidity 73    
Minimum Humidity 26    
Precipitation  
Precipitation 0.00 in 0.12 in 2.06 in (1881)
Month to date precipitation 1.65 1.12  
Year to date precipitation 12.35 18.15  
Snow  
Snow 0.00 in 0.00 in - ()
Month to date snowfall 0.0 0.0  
Since 1 July snowfall 1.8 20.1  
Snow Depth 0.00 in    
Sea Level Pressure  
Sea Level Pressure 29.96 in    
Wind  
Wind Speed 7 mph (West)    
Max Wind Speed 16 mph    
Max Gust Speed 23 mph    
Visibility 10 miles    
Events      
T = Trace of Precipitation, MM = Missing Value Source: NWS Daily Summary

Daily Weather History Graph

Daily Weather History Graph

Search for Another Location

Airport or City:

Trip Planner

Search our weather history database for the weather conditions in past years. The results will help you decide how hot, cold, wet, or windy it might be!

Date:

Astronomy

Jun. 09, 2012 Rise Set
Actual Time 5:40 AM EDT 8:32 PM EDT
Civil Twilight 5:08 AM EDT 9:04 PM EDT
Nautical Twilight 4:27 AM EDT 9:44 PM EDT
Astronomical Twilight 3:41 AM EDT 10:31 PM EDT
Moon No Moon Rise 11:21 AM EDT (6/9)
Length of Visible Light 15h 56m
Length of Day
14h 52m
Waning Gibbous, 68% of the Moon is Illuminated
Jun 9
Waning Gibbous
Jun 11
Last Quarter
Jun 19
New
Jun 26
First Quarter
Jul 3
Full

Hourly Weather History & Observations

Time (EDT) Temp. Heat Index Dew Point Humidity Pressure Visibility Wind Dir Wind Speed Gust Speed Precip Events Conditions
12:54 AM 68.0 °F - 54.0 °F 61% 29.94 in 10.0 mi Calm Calm - N/A   Mostly Cloudy
1:54 AM 64.0 °F - 55.0 °F 73% 29.94 in 10.0 mi West 4.6 mph - N/A   Scattered Clouds
2:54 AM 62.1 °F - 54.0 °F 75% 29.94 in 10.0 mi West 6.9 mph - N/A   Scattered Clouds
3:54 AM 64.0 °F - 54.0 °F 70% 29.94 in 10.0 mi West 5.8 mph - N/A   Partly Cloudy
4:54 AM 63.0 °F - 54.0 °F 72% 29.95 in 10.0 mi West 6.9 mph - N/A   Scattered Clouds
5:54 AM 63.0 °F - 54.0 °F 72% 29.96 in 10.0 mi West 5.8 mph - N/A   Mostly Cloudy
6:54 AM 64.9 °F - 55.0 °F 70% 29.97 in 10.0 mi West 4.6 mph - N/A   Mostly Cloudy
7:54 AM 71.1 °F - 55.9 °F 59% 29.98 in 10.0 mi West 8.1 mph - N/A   Mostly Cloudy
8:54 AM 75.9 °F - 55.9 °F 50% 29.98 in 10.0 mi West 9.2 mph - N/A   Mostly Cloudy
9:54 AM 80.1 °F 80.1 °F 55.0 °F 42% 29.98 in 10.0 mi WNW 9.2 mph - N/A   Mostly Cloudy
10:54 AM 82.9 °F 82.0 °F 55.0 °F 38% 29.98 in 10.0 mi West 11.5 mph - N/A   Mostly Cloudy
11:54 AM 86.0 °F 84.0 °F 53.1 °F 32% 29.98 in 10.0 mi West 12.7 mph - N/A   Mostly Cloudy
12:54 PM 87.1 °F - 52.0 °F 30% 29.97 in 10.0 mi West 11.5 mph - N/A   Mostly Cloudy
1:54 PM 89.1 °F - 51.1 °F 27% 29.96 in 10.0 mi WNW 10.4 mph - N/A   Mostly Cloudy
2:54 PM 89.1 °F - 52.0 °F 28% 29.94 in 10.0 mi West 10.4 mph 16.1 mph N/A   Scattered Clouds
3:54 PM 90.0 °F - 50.0 °F 25% 29.94 in 10.0 mi West 10.4 mph 18.4 mph N/A   Scattered Clouds
4:54 PM 90.0 °F - 51.1 °F 26% 29.93 in 10.0 mi WNW 8.1 mph - N/A   Scattered Clouds
5:54 PM 88.0 °F - 48.9 °F 26% 29.94 in 10.0 mi Variable 5.8 mph - N/A   Scattered Clouds
6:54 PM 86.0 °F - 51.1 °F 30% 29.93 in 10.0 mi West 9.2 mph - N/A   Scattered Clouds
7:54 PM 82.9 °F 81.8 °F 53.1 °F 36% 29.93 in 10.0 mi West 3.5 mph - N/A   Scattered Clouds
8:54 PM 77.0 °F - 55.0 °F 47% 29.95 in 10.0 mi Calm Calm - N/A   Partly Cloudy
9:54 PM 77.0 °F - 55.0 °F 47% 29.96 in 10.0 mi SW 3.5 mph - N/A   Clear
10:54 PM 73.9 °F - 55.9 °F 53% 29.98 in 10.0 mi Calm Calm - N/A   Partly Cloudy
11:54 PM 73.9 °F - 55.9 °F 53% 29.99 in 10.0 mi West 3.5 mph - N/A   Partly Cloudy